| time (UTC) | temp F | wind direction | speed MPH | gust MPH | rain 1hr in | rain 24hr in | rain mn in | humidity % | barometer mb |
| 20260901141015 | 68 | 0.0 | 0.0 | 0.00 | 0.00 | 0.00 | 84 | 1015.1 | |
| 20260901140015 | 67 | 0.0 | 0.0 | 0.00 | 0.00 | 0.00 | 86 | 1015.1 | |
| 20260901135016 | 67 | 0.0 | 0.0 | 0.00 | 0.00 | 0.00 | 86 | 1015.0 | |
| 20260901134015 | 66 | 0.0 | 0.0 | 0.00 | 0.00 | 0.00 | 86 | 1014.9 | |
| 20260901133015 | 66 | 0.0 | 0.0 | 0.00 | 0.00 | 0.00 | 85 | 1014.9 | |
| 20260901132016 | 66 | 0.0 | 0.0 | 0.00 | 0.00 | 0.00 | 85 | 1014.8 | |
| 20260901131015 | 66 | 0.0 | 0.0 | 0.00 | 0.00 | 0.00 | 85 | 1014.8 | |
| 20260901130038 | 66 | 15 | 0.0 | 3.0 | 0.00 | 0.00 | 0.00 | 86 | 1014.8 |
| 20260901125015 | 66 | 0.0 | 0.0 | 0.00 | 0.00 | 0.00 | 85 | 1014.7 | |
| 20260901124015 | 66 | 0.0 | 0.0 | 0.00 | 0.00 | 0.00 | 86 | 1014.7 | |
| 20260901123015 | 66 | 0.0 | 0.0 | 0.00 | 0.00 | 0.00 | 85 | 1014.7 | |
| 20260901122015 | 66 | 0.0 | 0.0 | 0.00 | 0.00 | 0.00 | 85 | 1014.7 | |
| 20260901121015 | 66 | 0.0 | 0.0 | 0.00 | 0.00 | 0.00 | 85 | 1014.8 | |
| 20260901120035 | 66 | 0.0 | 0.0 | 0.00 | 0.00 | 0.00 | 85 | 1014.8 | |
| 20260901115015 | 66 | 0.0 | 0.0 | 0.00 | 0.00 | 0.00 | 84 | 1014.7 | |
| 20260901114015 | 67 | 0.0 | 0.0 | 0.00 | 0.00 | 0.00 | 85 | 1014.6 | |
| 20260901113035 | 67 | 0.0 | 0.0 | 0.00 | 0.00 | 0.00 | 85 | 1014.5 | |
| 20260901112016 | 67 | 0.0 | 0.0 | 0.00 | 0.00 | 0.00 | 85 | 1014.5 | |
| 20260901111015 | 67 | 0.0 | 0.0 | 0.00 | 0.00 | 0.00 | 85 | 1014.5 | |
| 20260901110015 | 67 | 0.0 | 0.0 | 0.00 | 0.00 | 0.00 | 85 | 1014.5 | |
| 20260901105015 | 67 | 0.0 | 0.0 | 0.00 | 0.00 | 0.00 | 84 | 1014.6 | |
| 20260901104015 | 67 | 0.0 | 0.0 | 0.00 | 0.00 | 0.00 | 84 | 1014.7 | |
| 20260901103015 | 67 | 0.0 | 0.0 | 0.00 | 0.00 | 0.00 | 84 | 1014.9 | |
| 20260901102015 | 68 | 0.0 | 0.0 | 0.00 | 0.00 | 0.00 | 84 | 1014.9 | |
| 20260901101015 | 68 | 0.0 | 0.0 | 0.00 | 0.00 | 0.00 | 84 | 1014.9 | |
| 20260901100015 | 68 | 0.0 | 0.0 | 0.00 | 0.00 | 0.00 | 84 | 1015.0 | |
| 20260901095015 | 68 | 0.0 | 0.0 | 0.00 | 0.00 | 0.00 | 84 | 1014.9 | |
| 20260901094015 | 68 | 0.0 | 0.0 | 0.00 | 0.00 | 0.00 | 83 | 1015.0 | |
| 20260901093015 | 68 | 0.0 | 0.0 | 0.00 | 0.00 | 0.00 | 83 | 1015.0 | |
| 20260901092017 | 68 | 316 | 1.0 | 2.0 | 0.00 | 0.00 | 0.00 | 83 | 1015.0 |
| 20260901091017 | 69 | 315 | 1.0 | 3.0 | 0.00 | 0.00 | 0.00 | 83 | 1015.0 |
| 20260901090015 | 69 | 313 | 1.0 | 4.0 | 0.00 | 0.00 | 0.00 | 83 | 1015.0 |
| 20260901085057 | 69 | 303 | 2.0 | 4.0 | 0.00 | 0.00 | 0.00 | 83 | 1015.0 |
| 20260901084017 | 69 | 316 | 2.0 | 4.0 | 0.00 | 0.00 | 0.00 | 84 | 1015.0 |
| 20260901083017 | 69 | 314 | 1.0 | 3.0 | 0.00 | 0.00 | 0.00 | 84 | 1015.1 |
| 20260901082017 | 69 | 0.0 | 2.0 | 0.00 | 0.00 | 0.00 | 84 | 1015.2 | |
| 20260901081017 | 69 | 0.0 | 0.0 | 0.00 | 0.00 | 0.00 | 83 | 1015.3 | |
| 20260901080017 | 69 | 0.0 | 0.0 | 0.00 | 0.00 | 0.00 | 83 | 1015.1 | |
| 20260901075016 | 69 | 0.0 | 2.0 | 0.00 | 0.00 | 0.00 | 83 | 1015.1 | |
| 20260901074016 | 69 | 313 | 2.0 | 3.0 | 0.00 | 0.00 | 0.00 | 83 | 1015.0 |
| 20260901073016 | 69 | 311 | 0.0 | 2.0 | 0.00 | 0.00 | 0.00 | 82 | 1015.1 |
| 20260901072016 | 69 | 312 | 0.0 | 3.0 | 0.00 | 0.00 | 0.00 | 82 | 1015.1 |
| 20260901071038 | 70 | 312 | 1.0 | 3.0 | 0.00 | 0.00 | 0.00 | 82 | 1015.2 |
| 20260901070016 | 70 | 314 | 1.0 | 3.0 | 0.00 | 0.00 | 0.00 | 82 | 1015.2 |
| 20260901065016 | 70 | 309 | 1.0 | 4.0 | 0.00 | 0.00 | 0.00 | 82 | 1015.2 |
| 20260901064015 | 70 | 317 | 1.0 | 4.0 | 0.00 | 0.00 | 0.00 | 81 | 1015.0 |
| 20260901063015 | 70 | 0.0 | 0.0 | 0.00 | 0.00 | 0.00 | 80 | 1015.0 | |
| 20260901062017 | 70 | 0.0 | 0.0 | 0.00 | 0.00 | 0.00 | 80 | 1015.1 | |
| 20260901061016 | 70 | 316 | 1.0 | 4.0 | 0.00 | 0.00 | 0.00 | 80 | 1015.1 |
| 20260901060015 | 70 | 305 | 1.0 | 5.0 | 0.00 | 0.00 | 0.00 | 79 | 1015.0 |
| 20260901055017 | 70 | 308 | 0.0 | 4.0 | 0.00 | 0.00 | 0.00 | 79 | 1014.9 |
| 20260901054015 | 71 | 311 | 2.0 | 5.0 | 0.00 | 0.00 | 0.00 | 79 | 1015.1 |
| 20260901053017 | 71 | 309 | 3.0 | 6.0 | 0.00 | 0.00 | 0.00 | 79 | 1014.9 |
| 20260901052015 | 71 | 320 | 1.0 | 4.0 | 0.00 | 0.00 | 0.00 | 79 | 1014.7 |
| 20260901051015 | 71 | 321 | 2.0 | 4.0 | 0.00 | 0.00 | 0.00 | 79 | 1014.7 |
| 20260901050036 | 71 | 0.0 | 3.0 | 0.00 | 0.00 | 0.00 | 79 | 1014.6 | |
| 20260901045015 | 71 | 313 | 2.0 | 4.0 | 0.00 | 0.00 | 0.00 | 78 | 1014.6 |
| 20260901044015 | 71 | 304 | 1.0 | 4.0 | 0.00 | 0.00 | 0.00 | 78 | 1014.6 |
| 20260901043015 | 72 | 311 | 1.0 | 4.0 | 0.00 | 0.00 | 0.00 | 78 | 1014.5 |
| 20260901042015 | 72 | 312 | 0.0 | 3.0 | 0.00 | 0.00 | 0.00 | 78 | 1014.5 |
| 20260901041015 | 72 | 311 | 1.0 | 4.0 | 0.00 | 0.00 | 0.00 | 78 | 1014.5 |
| 20260901040015 | 72 | 308 | 2.0 | 5.0 | 0.00 | 0.00 | 0.00 | 77 | 1014.4 |
| 20260901035035 | 72 | 286 | 2.0 | 6.0 | 0.00 | 0.00 | 0.00 | 77 | 1014.4 |
| 20260901034016 | 72 | 313 | 2.0 | 5.0 | 0.00 | 0.00 | 0.00 | 76 | 1014.2 |
| 20260901033035 | 73 | 285 | 1.0 | 3.0 | 0.00 | 0.00 | 0.00 | 76 | 1014.1 |
| 20260901032015 | 73 | 281 | 1.0 | 6.0 | 0.00 | 0.00 | 0.00 | 76 | 1014.0 |
| 20260901031015 | 73 | 288 | 3.0 | 7.0 | 0.00 | 0.00 | 0.00 | 75 | 1013.8 |
| 20260901030015 | 74 | 285 | 2.0 | 8.0 | 0.00 | 0.00 | 0.00 | 75 | 1013.8 |
| 20260901025015 | 74 | 293 | 3.0 | 7.0 | 0.00 | 0.00 | 0.00 | 74 | 1013.6 |
| 20260901024015 | 74 | 294 | 3.0 | 7.0 | 0.00 | 0.00 | 0.00 | 73 | 1013.4 |
| 20260901023035 | 75 | 274 | 1.0 | 9.0 | 0.00 | 0.00 | 0.00 | 72 | 1013.2 |
| 20260901022015 | 75 | 289 | 5.0 | 9.0 | 0.00 | 0.00 | 0.00 | 71 | 1013.2 |
| 20260901021015 | 76 | 278 | 4.0 | 8.0 | 0.00 | 0.00 | 0.00 | 70 | 1013.1 |
| 20260901020017 | 77 | 287 | 4.0 | 9.0 | 0.00 | 0.00 | 0.00 | 69 | 1013.1 |
| 20260901015017 | 77 | 272 | 4.0 | 9.0 | 0.00 | 0.00 | 0.00 | 68 | 1013.1 |
| 20260901014017 | 78 | 272 | 3.0 | 8.0 | 0.00 | 0.00 | 0.00 | 68 | 1013.1 |
| 20260901013016 | 78 | 279 | 4.0 | 8.0 | 0.00 | 0.00 | 0.00 | 66 | 1013.0 |
| 20260901012018 | 79 | 279 | 3.0 | 8.0 | 0.00 | 0.00 | 0.00 | 66 | 1013.1 |
| 20260901011016 | 80 | 286 | 5.0 | 11.0 | 0.00 | 0.00 | 0.00 | 64 | 1013.2 |
| 20260901010017 | 80 | 298 | 5.0 | 10.0 | 0.00 | 0.00 | 0.00 | 62 | 1013.2 |
| 20260901005017 | 81 | 301 | 3.0 | 9.0 | 0.00 | 0.00 | 0.00 | 60 | 1013.3 |
| 20260901004017 | 81 | 277 | 3.0 | 7.0 | 0.00 | 0.00 | 0.00 | 58 | 1013.2 |
| 20260901003017 | 81 | 268 | 3.0 | 9.0 | 0.00 | 0.00 | 0.00 | 57 | 1013.3 |
| 20260901002018 | 81 | 269 | 3.0 | 8.0 | 0.00 | 0.00 | 0.00 | 59 | 1013.3 |
| 20260901001037 | 81 | 285 | 3.0 | 8.0 | 0.00 | 0.00 | 0.00 | 59 | 1013.3 |
| 20260901000015 | 82 | 294 | 5.0 | 9.0 | 0.00 | 0.00 | 0.00 | 59 | 1013.4 |
| 20260831235016 | 82 | 274 | 4.0 | 10.0 | 0.00 | 0.00 | 0.00 | 59 | 1013.3 |
| 20260831234016 | 82 | 301 | 5.0 | 10.0 | 0.00 | 0.00 | 0.00 | 59 | 1013.4 |
| 20260831233016 | 82 | 271 | 5.0 | 10.0 | 0.00 | 0.00 | 0.00 | 59 | 1013.4 |
| 20260831232017 | 82 | 269 | 6.0 | 10.0 | 0.00 | 0.00 | 0.00 | 58 | 1013.4 |
| 20260831231016 | 82 | 260 | 3.0 | 11.0 | 0.00 | 0.00 | 0.00 | 59 | 1013.5 |
| 20260831230016 | 83 | 236 | 5.0 | 11.0 | 0.00 | 0.00 | 0.00 | 58 | 1013.6 |
| 20260831225017 | 84 | 276 | 5.0 | 13.0 | 0.00 | 0.00 | 0.00 | 57 | 1013.7 |
| 20260831224016 | 84 | 261 | 5.0 | 11.0 | 0.00 | 0.00 | 0.00 | 57 | 1013.8 |
| 20260831223037 | 84 | 278 | 6.0 | 12.0 | 0.00 | 0.00 | 0.00 | 57 | 1013.9 |
| 20260831222016 | 85 | 283 | 5.0 | 10.0 | 0.00 | 0.00 | 0.00 | 56 | 1014.0 |
| 20260831221016 | 85 | 235 | 5.0 | 12.0 | 0.00 | 0.00 | 0.00 | 55 | 1014.1 |
| 20260831220038 | 86 | 251 | 5.0 | 13.0 | 0.00 | 0.00 | 0.00 | 54 | 1014.1 |
| 20260831215017 | 87 | 258 | 5.0 | 11.0 | 0.00 | 0.00 | 0.00 | 53 | 1014.1 |
| 20260831214016 | 87 | 287 | 6.0 | 12.0 | 0.00 | 0.00 | 0.00 | 53 | 1014.1 |
| 20260831213037 | 88 | 260 | 5.0 | 12.0 | 0.00 | 0.00 | 0.00 | 53 | 1014.1 |
| 20260831212017 | 87 | 293 | 7.0 | 13.0 | 0.00 | 0.00 | 0.00 | 53 | 1014.2 |
| 20260831211016 | 88 | 256 | 5.0 | 12.0 | 0.00 | 0.00 | 0.00 | 53 | 1014.3 |
| 20260831210016 | 87 | 286 | 6.0 | 12.0 | 0.00 | 0.00 | 0.00 | 54 | 1014.3 |
| 20260831205017 | 89 | 255 | 5.0 | 11.0 | 0.00 | 0.00 | 0.00 | 52 | 1014.4 |
| 20260831204016 | 89 | 286 | 7.0 | 15.0 | 0.00 | 0.00 | 0.00 | 52 | 1014.5 |
| 20260831203039 | 89 | 278 | 8.0 | 15.0 | 0.00 | 0.00 | 0.00 | 53 | 1014.4 |
| 20260831202016 | 89 | 291 | 7.0 | 12.0 | 0.00 | 0.00 | 0.00 | 53 | 1014.4 |
| 20260831201017 | 89 | 258 | 5.0 | 11.0 | 0.00 | 0.00 | 0.00 | 53 | 1014.4 |
| 20260831200016 | 89 | 271 | 5.0 | 10.0 | 0.00 | 0.00 | 0.00 | 52 | 1014.5 |
| 20260831195016 | 89 | 249 | 6.0 | 12.0 | 0.00 | 0.00 | 0.00 | 53 | 1014.6 |
| 20260831194016 | 89 | 238 | 6.0 | 11.0 | 0.00 | 0.00 | 0.00 | 51 | 1014.7 |
| 20260831193016 | 88 | 267 | 5.0 | 11.0 | 0.00 | 0.00 | 0.00 | 53 | 1014.6 |
| 20260831192056 | 88 | 258 | 6.0 | 12.0 | 0.00 | 0.00 | 0.00 | 53 | 1014.7 |
| 20260831191016 | 88 | 266 | 5.0 | 12.0 | 0.00 | 0.00 | 0.00 | 53 | 1014.8 |
| 20260831190016 | 88 | 232 | 6.0 | 13.0 | 0.00 | 0.00 | 0.00 | 53 | 1014.7 |
| 20260831185017 | 88 | 217 | 5.0 | 10.0 | 0.00 | 0.00 | 0.00 | 53 | 1014.8 |
| 20260831184016 | 88 | 247 | 4.0 | 9.0 | 0.00 | 0.00 | 0.00 | 53 | 1014.8 |
| 20260831183016 | 88 | 255 | 4.0 | 9.0 | 0.00 | 0.00 | 0.00 | 53 | 1014.8 |
| 20260831182016 | 88 | 255 | 5.0 | 10.0 | 0.00 | 0.00 | 0.00 | 54 | 1014.8 |
| 20260831181016 | 88 | 259 | 4.0 | 11.0 | 0.00 | 0.00 | 0.00 | 55 | 1014.8 |
| 20260831180016 | 86 | 264 | 3.0 | 9.0 | 0.00 | 0.00 | 0.00 | 58 | 1014.7 |
| 20260831175036 | 84 | 260 | 3.0 | 12.0 | 0.00 | 0.00 | 0.00 | 60 | 1014.6 |
| 20260831174016 | 84 | 189 | 6.0 | 11.0 | 0.00 | 0.00 | 0.00 | 61 | 1014.5 |
| 20260831173016 | 84 | 190 | 8.0 | 15.0 | 0.00 | 0.00 | 0.00 | 61 | 1014.5 |
| 20260831172018 | 83 | 200 | 7.0 | 13.0 | 0.00 | 0.00 | 0.00 | 61 | 1014.6 |
| 20260831171016 | 84 | 178 | 7.0 | 13.0 | 0.00 | 0.00 | 0.00 | 60 | 1014.5 |
| 20260831170016 | 84 | 209 | 4.0 | 8.0 | 0.00 | 0.00 | 0.00 | 60 | 1014.5 |
| 20260831165016 | 83 | 182 | 4.0 | 10.0 | 0.00 | 0.00 | 0.00 | 62 | 1014.5 |
| 20260831164016 | 83 | 178 | 2.0 | 11.0 | 0.00 | 0.00 | 0.00 | 62 | 1014.4 |
| 20260831163016 | 83 | 190 | 5.0 | 11.0 | 0.00 | 0.00 | 0.00 | 62 | 1014.5 |
| 20260831162016 | 82 | 242 | 2.0 | 6.0 | 0.00 | 0.00 | 0.00 | 63 | 1014.4 |
| 20260831161016 | 82 | 116 | 1.0 | 6.0 | 0.00 | 0.00 | 0.00 | 63 | 1014.5 |
| 20260831160016 | 81 | 209 | 1.0 | 6.0 | 0.00 | 0.00 | 0.00 | 64 | 1014.5 |
| 20260831155036 | 81 | 92 | 1.0 | 6.0 | 0.00 | 0.00 | 0.00 | 64 | 1014.6 |
| 20260831154015 | 81 | 171 | 0.0 | 5.0 | 0.00 | 0.00 | 0.00 | 65 | 1014.5 |
| 20260831153036 | 81 | 176 | 3.0 | 7.0 | 0.00 | 0.00 | 0.00 | 66 | 1014.5 |
| 20260831152038 | 80 | 165 | 1.0 | 4.0 | 0.00 | 0.00 | 0.00 | 67 | 1014.4 |
| 20260831151016 | 79 | 217 | 1.0 | 5.0 | 0.00 | 0.00 | 0.00 | 69 | 1014.4 |
| 20260831150036 | 77 | 0.0 | 0.0 | 0.00 | 0.00 | 0.00 | 72 | 1014.3 | |
| 20260831145036 | 75 | 0.0 | 0.0 | 0.00 | 0.00 | 0.00 | 74 | 1014.2 | |
| 20260831144015 | 73 | 0.0 | 0.0 | 0.00 | 0.00 | 0.00 | 78 | 1014.1 | |
| 20260831143056 | 72 | 0.0 | 0.0 | 0.00 | 0.00 | 0.00 | 80 | 1014.0 | |
| 20260831142016 | 71 | 0.0 | 0.0 | 0.00 | 0.00 | 0.00 | 81 | 1014.0 |